Regional Weather Roundup
Issued by NWS

Home | Current Version | Previous Version | Text Only | Print | Product List | Glossary Off
Versions: 1 2 3 4 5 6 7 8 9 10 11 12 13 14 15 16 17 18 19 20 21 22 23 24 25 26 27 28 29 30 31 32 33 34 35 36 37 38 39 40 41 42 43 44 45 46 47 48 49 50

000
ASUS45 KABQ 280501
RWRNM
NEW MEXICO REGIONAL WEATHER ROUNDUP
NATIONAL WEATHER SERVICE ALBUQUERQUE NM
1100 PM MDT FRI MAY 27 2016

NOTE: "FAIR" MEANS FEW OR NO CLOUDS BELOW 12,000 FEET AGL WITH NO
       SIGNIFICANT WEATHER OR OBSTRUCTIONS TO VISION.

      THIS PRODUCT IS RELEASED AS TWO VERSIONS.  ONE VERSION NEAR
      THE TOP OF THE HOUR CONTAINING PRELIMINARY DATA FROM ALBUQUERQUE
      AND OTHER STATIONS.  A FINAL VERSION WITH ADDITIONAL DATA IS
      ISSUED ABOUT 10 MINUTES AFTER THE HOUR.

NMZ501-503-504-510>518-280600-
NORTHWEST PLATEAU/NORTHCENTRAL MOUNTAINS

CITY           SKY/WX    TMP DP  RH WIND       PRES   REMARKS
FARMINGTON     FAIR      57  28  33 E12       29.99R
SANTA FE       MOCLDY    53  31  42 N10       30.03R
TAOS           MOCLDY    43  32  65 SW9       30.08S
ANGEL FIRE     FAIR      32  31  94 CALM      30.13S

$$
NMZ402-403-502-505>509-280600-
WESTCENTRAL MOUNTAINS/SOUTHWEST MOUNTAINS

CITY           SKY/WX    TMP DP  RH WIND       PRES   REMARKS
GALLUP         FAIR      46  23  40 NE5       30.05R
GRANTS         MOCLDY    54  21  27 N7        30.07R
SILVER CITY      N/A     55  18  22 N9        30.04R

$$
NMZ407-409-411-412-280600-
SOUTHERN DESERTS

CITY           SKY/WX    TMP DP  RH WIND       PRES   REMARKS
LORDSBURG      FAIR      61  18  18 NW3       29.95S
DEMING         FAIR      65  20  17 W8        29.95R
HOLLOMAN AFB   FAIR      66  18  15 S8        29.90R
ALAMOGORDO     FAIR      64  16  15 SE7       29.93S
T OR C         FAIR      70  26  19 W9        29.94R

$$
NMZ519>523-280600-
CENTRAL VALLEYS/CENTRAL HIGHLANDS

CITY           SKY/WX    TMP DP  RH WIND       PRES   REMARKS
ALBUQUERQUE    MOCLDY    67  24  19 NW6       29.98R
DOUBLE EAGLE   FAIR      54  23  30 NW8       30.00S
CLINES CORNERS MOCLDY    54  25  32 W6        30.05R
BELEN          FAIR      58  20  23 W5        29.97S
SOCORRO        NOT AVBL

$$
NMZ524>526-539-540-280600-
SOUTHCENTRAL MOUNTAINS

CITY           SKY/WX    TMP DP  RH WIND       PRES   REMARKS
RUIDOSO        NOT AVBL

$$
NMZ527>531-280600-
NORTHEAST HIGHLANDS/NORTHEAST PLAINS

CITY           SKY/WX    TMP DP  RH WIND       PRES   REMARKS
LAS VEGAS      FAIR      45  37  73 N8        30.06R
RATON          FAIR      46  35  65 N7        30.03S
CLAYTON        FAIR      51  41  68 CALM      29.99R

$$
NMZ532>537-280600-
EASTCENTRAL PLAINS

CITY           SKY/WX    TMP DP  RH WIND       PRES   REMARKS
TUCUMCARI      FAIR      59  42  53 NE5       29.92S
CANNON AFB     MOCLDY    64  36  35 N22G32    29.92R
CLOVIS AIRPORT FAIR      61  36  39 N25       29.92R

$$
NMZ028-029-538-280600-
SOUTHEAST PLAINS

CITY           SKY/WX    TMP DP  RH WIND       PRES   REMARKS
ROSWELL        FAIR      69  23  17 W12       29.87R
ARTESIA        FAIR      66  21  18 W10       29.87S
CARLSBAD       FAIR      68  18  14 W13       29.86R
HOBBS          FAIR      70  18  13 SW10      29.89S


$$




USA.gov is the U.S. government's official web portal to all federal, state and local government web resources and services.